EDT,Max TemperatureF,Mean TemperatureF,Min TemperatureF,Max Dew PointF,MeanDew PointF,Min DewpointF,Max Humidity, Mean Humidity, Min Humidity, Max Sea Level PressureIn, Mean Sea Level PressureIn, Min Sea Level PressureIn, Max VisibilityMiles, Mean VisibilityMiles, Min VisibilityMiles, Max Wind SpeedMPH, Mean Wind SpeedMPH, Max Gust SpeedMPH,PrecipitationIn, CloudCover, Events, WindDirDegrees
2010-10-1,75,68,59,70,65,52,94,86,78,29.76,29.61,29.53,10,6,0,29,17,38,0.49,7,Fog-Rain,174
2010-10-2,68,59,52,51,46,42,86,66,42,30.05,29.91,29.70,10,10,10,12,8,20,0.00,0,,328
2010-10-3,63,55,48,48,44,39,77,67,57,30.16,30.11,30.06,10,10,10,21,12,28,0.00,3,Rain,24
2010-10-4,64,58,52,52,50,47,86,75,60,30.14,30.06,30.01,10,10,7,29,16,38,0.15,8,Rain,41
2010-10-5,63,60,55,59,55,52,89,83,70,30.04,29.99,29.96,10,8,2,18,13,24,0.00,7,Rain,61
2010-10-6,61,56,51,58,54,48,93,86,67,30.03,29.87,29.65,10,7,2,20,6,24,0.53,7,Rain,304
2010-10-7,71,61,52,53,47,40,86,67,42,29.81,29.63,29.56,10,10,5,16,9,26,0.08,4,Rain,277
2010-10-8,69,60,52,56,47,42,73,59,45,29.91,29.83,29.76,10,10,10,20,9,29,0.00,0,,269
2010-10-9,70,60,50,47,37,24,83,47,18,29.97,29.87,29.78,10,10,10,17,8,24,0.00,0,,321
2010-10-10,64,50,37,54,39,30,86,61,29,29.98,29.86,29.71,10,10,10,14,6,24,0.00,0,,275
2010-10-11,72,58,45,58,50,42,93,72,43,29.80,29.77,29.72,10,10,10,14,3,20,0.00,1,,249
2010-10-12,70,60,50,59,52,39,84,70,44,29.90,29.77,29.72,10,10,10,14,8,,0.00,5,Rain,317
2010-10-13,62,51,42,43,38,33,90,64,44,30.03,29.99,29.92,10,10,10,12,5,,0.00,0,,333
2010-10-14,63,52,42,52,46,39,92,76,58,30.02,29.87,29.55,10,9,5,17,7,23,0.61,4,Rain,69
2010-10-15,57,52,48,52,45,39,92,76,55,29.54,29.37,29.30,10,9,2,24,17,40,0.34,8,Rain,299
2010-10-16,61,54,48,38,36,35,66,54,41,29.86,29.63,29.42,10,10,10,23,15,38,0.00,3,,314
2010-10-17,64,54,45,49,41,33,74,61,45,29.88,29.81,29.72,10,10,10,16,8,22,0.00,1,,274
2010-10-18,60,52,43,40,36,29,80,53,32,29.94,29.88,29.85,10,10,10,17,7,23,0.00,1,,293
2010-10-19,57,50,43,43,37,32,86,62,42,29.95,29.92,29.88,10,10,10,13,5,,0.00,2,,294
2010-10-20,61,52,43,46,42,39,93,64,46,29.94,29.87,29.77,10,10,7,13,3,,0.00,1,,229
2010-10-21,61,52,39,52,44,33,93,71,51,29.75,29.63,29.52,10,10,5,18,10,31,0.03,3,Rain,271
2010-10-22,52,44,36,35,29,25,89,56,36,30.06,29.92,29.76,10,10,10,17,7,29,0.00,3,,298
2010-10-23,62,52,43,44,36,27,86,60,47,30.16,30.10,30.05,10,10,10,14,8,20,0.00,2,,274
2010-10-24,59,52,46,54,46,34,89,77,56,30.19,30.12,30.01,10,10,10,9,4,,0.00,7,Rain,65
2010-10-25,66,57,48,60,54,46,94,87,78,30.04,29.98,29.84,10,7,0,15,4,,0.00,7,Fog-Rain,211
2010-10-26,66,64,62,61,60,59,94,88,81,29.95,29.91,29.81,10,7,0,20,11,26,0.01,7,Fog,192
2010-10-27,66,64,62,64,63,61,100,93,88,29.95,29.90,29.86,9,3,0,18,11,23,0.04,8,Fog-Rain,211
2010-10-28,69,62,55,64,60,36,100,89,44,29.87,29.84,29.76,10,4,0,16,7,25,0.02,5,Fog-Rain,225
2010-10-29,57,50,44,39,35,28,68,55,48,29.98,29.90,29.84,10,10,10,17,10,28,0.00,3,,322
2010-10-30,57,49,41,42,36,30,70,57,47,30.07,29.94,29.76,10,10,10,23,11,32,0.00,0,,259
2010-10-31,61,50,41,42,33,21,62,49,28,30.09,29.81,29.68,10,10,10,22,12,31,0.00,1,,298